Wind_Speed
5 4 12 18 14 2 4 6 9 4 5 6 11 12 11 13 7 12 14 14 10 11 17 29 33 42 43 40 37 41 41 42 42 39 40 39 41 34 34 32 26 31 31 29
1 17 17 6 8 9 9 13 22 15 7 8 17 20 15 10 10 8 14 14 11 7 8 9 29 30 38 42 42 39 41 42 44 42 40 31 31 35 34 30 29 31 33 30
11 6 11 9 8 10 14 17 18 16 8 13 12 20 17 11 6 9 8 11 10 12 13 10 10 22 37 37 38 42 45 48 46 39 33 27 28 25 30 33 36 36 33 30
10 16 15 10 15 15 17 16 18 17 9 11 7 16 20 8 10 8 11 8 10 10 8 11 10 11 28 41 44 46 45 46 46 44 39 40 41 31 30 36 39 35 32 32
8 3 8 14 22 12 15 15 16 16 14 9 11 4 23 5 6 8 9 11 10 11 10 13 12 20 34 39 42 46 42 42 44 47 43 40 36 32 30 34 38 35 32 32
8 7 6 4 8 8 12 13 13 9 8 11 22 8 25 18 16 9 7 9 10 11 11 12 16 25 24 35 38 39 41 43 42 46 43 43 40 35 33 34 39 38 35 31
7 14 10 9 10 10 4 6 6 6 9 17 15 9 23 4 9 17 19 17 14 13 10 10 11 9 18 28 37 39 41 41 40 44 43 44 42 42 41 41 39 38 40 37
2 7 3 3 7 7 11 5 4 11 7 14 16 13 20 19 8 7 13 17 14 14 15 11 12 14 18 29 37 41 43 40 41 45 42 41 39 40 38 43 42 42 44 43
4 7 3 5 9 4 1 9 13 11 13 10 10 9 13 27 27 24 21 16 17 19 12 11 13 15 17 28 37 45 43 41 42 46 41 39 41 41 39 41 47 45 43 42
6 14 8 7 6 8 7 3 3 3 10 18 12 10 12 20 10 14 23 22 14 10 13 15 14 15 24 31 39 40 42 46 48 46 42 38 41 43 42 45 46 48 48 44
5 3 7 3 5 3 5 2 3 5 3 4 6 7 13 26 19 21 21 21 23 9 14 14 20 19 21 26 29 35 36 38 38 41 37 41 39 43 42 44 45 47 47 48
4 4 6 9 11 16 14 15 3 3 4 4 4 8 13 19 20 15 15 15 13 14 16 13 19 17 10 20 25 31 33 36 37 39 37 36 35 40 41 40 41 45 46 50
8 3 6 12 3 5 4 4 1 2 3 4 7 3 14 20 23 22 23 24 22 21 24 15 10 10 8 15 22 25 30 32 33 34 36 34 36 38 37 37 38 42 43 42
11 8 10 13 9 6 16 16 12 10 4 7 11 19 25 32 18 22 22 21 21 15 15 19 13 6 5 12 22 26 27 31 32 34 33 34 36 38 40 41 41 40 41 39
2 4 5 11 8 6 11 15 16 13 17 14 24 18 22 26 21 15 21 21 24 19 19 20 12 7 6 8 13 18 22 29 34 33 31 34 35 35 35 37 38 40 36 38
3 6 4 20 15 11 15 18 18 18 19 14 20 23 19 25 24 13 16 19 19 20 24 22 9 7 9 10 15 19 23 29 34 31 29 29 31 34 35 32 32 33 33 33
6 4 3 20 13 13 14 14 12 15 17 15 17 19 21 17 21 15 14 18 20 19 19 18 18 9 10 17 24 25 27 27 27 28 30 33 32 32 33 35 34 33 35 37
11 7 5 14 9 20 10 4 7 14 17 17 19 19 20 14 17 19 13 14 17 20 20 20 15 10 19 25 24 23 28 32 32 29 28 31 31 30 32 35 36 36 38 37
19 13 8 10 14 18 21 23 17 14 22 15 18 19 22 15 16 8 7 15 16 18 18 18 25 23 24 25 29 27 28 30 29 31 33 35 37 36 36 36 38 38 38 36
9 12 9 1 7 11 18 27 3 6 10 9 10 18 5 7 10 11 9 9 14 17 16 19 31 30 27 27 26 27 28 33 33 34 37 38 39 40 39 38 37 36 38 35
3 2 14 12 10 9 18 19 2 7 17 21 8 8 8 8 7 17 13 10 11 14 16 32 35 28 29 25 31 28 28 30 34 31 34 36 38 38 38 38 38 38 37 36
7 5 5 3 8 13 12 5 11 18 17 12 7 9 10 8 10 13 17 14 15 12 13 22 22 30 36 26 32 29 29 35 36 37 37 36 38 37 41 43 37 36 37 34
7 13 7 9 7 8 6 9 9 3 6 7 7 10 8 11 9 12 14 15 16 13 12 17 21 30 41 28 36 26 29 33 36 37 37 39 39 38 39 43 39 37 34 32
8 7 8 11 21 26 18 18 18 19 19 18 16 17 17 17 12 12 13 13 13 8 10 18 20 16 20 13 23 23 29 34 38 36 36 36 37 37 36 37 36 35 33 29
7 5 11 16 23 18 20 21 21 21 19 19 17 16 16 11 14 11 13 14 13 8 8 6 8 12 16 13 22 29 31 32 28 28 31 31 32 34 34 31 32 32 32 37
19 24 9 13 13 6 16 12 12 15 17 17 14 15 13 10 15 9 12 14 16 15 8 3 4 4 11 7 18 23 31 40 38 28 23 28 32 32 31 32 29 31 33 30
Wind_Direction
180 168 215 214 211 236 266 275 253 274 254 263 261 278 271 273 265 254 248 244 239 212 214 212 213 200 203 202 196 193 191 195 189 191 191 193 196 198 203 208 215 208 210 209
191 224 223 233 177 222 228 241 260 277 269 263 279 280 268 255 261 220 248 250 228 220 245 225 228 191 197 197 198 194 193 190 192 191 193 196 195 199 202 205 207 206 207 207
218 207 221 207 209 223 229 231 252 253 269 268 280 280 276 265 243 273 246 247 245 223 225 223 218 190 193 195 195 195 195 194 194 193 189 189 191 198 207 207 200 201 207 205
237 250 259 246 235 213 239 234 250 255 258 256 162 271 273 267 258 240 263 240 250 241 234 236 223 188 191 196 197 199 196 194 194 193 188 187 186 188 199 191 195 193 198 198
213 179 232 245 246 240 250 257 259 260 254 267 251 244 267 201 252 260 242 257 252 250 250 249 229 216 197 196 195 199 195 193 191 189 189 188 189 194 193 185 189 188 192 198
265 282 275 224 310 311 312 304 263 268 251 247 256 235 274 258 256 259 262 254 248 261 246 243 235 234 207 196 193 193 192 194 192 188 189 190 187 184 176 180 184 187 188 192
310 273 276 274 293 301 242 286 280 260 254 254 256 241 260 266 250 250 257 265 268 273 263 259 259 242 210 196 191 189 192 194 191 190 192 192 189 185 184 181 178 178 182 184
267 312 171 240 210 256 248 232 209 243 248 260 255 239 249 266 266 294 311 277 270 273 273 258 250 256 212 202 191 189 193 193 189 190 193 192 190 187 187 184 182 182 184 186
235 250 227 269 292 223 358 238 262 274 262 262 252 279 264 266 268 272 276 293 276 272 287 282 273 269 232 211 195 192 192 193 190 191 188 187 188 188 188 186 189 184 187 188
325 286 250 324 296 274 216 189 292 277 272 261 244 234 249 265 289 262 263 265 275 286 301 302 285 267 257 224 203 193 190 187 191 190 188 184 188 191 192 188 186 187 189 189
305 325 327 330 212 359 334 239 228 249 222 246 269 259 238 259 265 267 265 267 271 286 295 299 298 276 245 222 196 188 186 188 189 190 181 186 188 187 189 188 185 188 188 189
294 267 277 258 262 261 260 280 4 236 268 254 257 270 294 303 307 307 308 303 298 291 301 308 307 279 192 183 182 181 184 185 189 188 182 185 182 184 184 186 187 189 187 187
311 280 311 313 6 21 99 326 318 197 234 255 305 302 305 310 304 305 303 301 296 290 289 304 315 291 198 171 173 177 179 184 187 184 180 180 181 181 182 185 185 187 183 181
296 236 229 258 253 287 291 295 291 270 221 269 262 283 289 299 300 302 293 288 291 283 282 299 289 250 296 179 175 175 177 182 173 171 170 175 177 181 183 185 185 185 180 169
163 260 273 283 302 282 283 282 280 264 265 263 285 274 274 275 293 293 302 298 294 295 290 287 280 238 200 186 176 169 168 170 172 171 174 177 176 178 179 179 175 171 168 162
233 266 259 285 294 291 286 267 268 271 270 261 260 269 261 268 286 301 291 294 291 290 291 285 256 193 197 207 193 180 177 177 175 172 173 169 165 169 169 165 158 155 152 151
244 257 277 278 297 305 281 269 247 257 250 256 259 268 283 279 289 288 301 304 298 292 288 289 295 253 230 211 195 188 183 175 173 174 169 170 170 165 162 159 152 151 145 146
241 219 231 266 300 270 268 223 265 272 258 259 268 273 274 272 281 283 293 293 328 329 321 309 290 276 257 237 208 192 177 177 177 176 171 168 166 163 157 156 151 146 147 148
218 222 243 247 251 273 293 279 257 255 273 270 271 275 277 301 301 327 344 340 318 312 314 310 305 289 258 210 205 192 183 180 177 176 173 170 167 160 157 155 150 145 145 147
216 212 213 184 241 249 259 267 238 298 279 252 259 276 270 314 302 302 294 303 304 303 314 309 304 300 271 247 201 188 188 180 182 181 176 169 167 163 160 155 150 150 148 147
165 162 213 227 244 256 250 271 254 242 252 265 206 235 245 267 262 290 295 286 284 289 314 326 323 311 270 241 187 190 185 192 190 173 166 165 164 163 155 147 150 149 145 147
183 180 197 200 233 256 230 225 191 245 266 260 251 258 256 247 270 287 292 292 300 300 320 333 327 314 300 230 189 192 193 187 173 162 162 161 160 158 153 148 148 145 146 146
243 206 220 190 215 245 206 225 217 213 234 264 239 267 256 268 258 289 291 297 295 299 306 337 339 321 311 252 194 192 192 168 161 160 160 159 156 158 156 150 149 145 146 142
259 233 227 251 254 255 260 276 275 276 262 264 264 271 274 269 275 276 285 285 280 292 318 333 357 321 313 276 202 190 163 162 159 158 155 154 152 151 150 145 146 143 143 145
226 158 233 249 257 272 271 270 269 269 266 265 265 259 247 252 267 255 274 280 273 267 273 345 10 314 316 326 115 138 142 143 138 141 146 145 144 142 139 139 141 142 156 169
253 252 232 251 248 217 261 250 251 257 265 267 257 262 256 239 259 264 269 270 271 267 226 194 141 333 2 343 96 119 136 140 138 135 141 143 137 134 132 128 131 163 177 178
Height
777 791 795 782 779 781 784 788 792 775 764 769 766 762 755 741 741 739 736 730 729 727 718 722 724 728 733 737 740 744 749 754 760 765 770 774 774 780 786 790 794 798 801 804
782 783 767 772 780 783 784 790 782 772 769 770 761 757 744 742 736 733 727 726 723 717 717 714 716 720 725 727 731 738 742 747 751 756 760 769 773 775 780 786 788 793 797 799
783 765 763 771 777 782 780 787 779 780 771 764 765 762 746 735 730 723 720 717 716 711 710 710 710 712 715 722 726 729 732 736 743 750 758 764 771 775 778 780 782 786 791 794
777 765 767 768 774 773 780 765 767 769 779 786 761 779 744 731 735 727 720 718 714 708 704 702 702 706 708 710 714 718 723 728 735 742 748 750 752 759 763 768 773 780 786 790
768 765 768 771 764 766 767 763 766 765 769 776 769 784 725 730 739 730 721 715 710 706 701 698 695 693 695 699 705 709 716 722 725 730 736 742 748 754 758 763 769 775 782 786
771 765 771 767 763 767 764 764 761 763 764 783 759 774 741 731 726 723 714 708 703 699 695 690 688 688 688 690 696 704 710 712 718 723 729 733 738 745 750 758 762 767 775 783
774 766 760 760 769 762 768 775 785 784 787 773 749 766 745 714 710 708 704 698 694 690 692 688 686 685 686 686 687 694 701 705 711 717 722 724 729 733 739 746 752 760 767 775
785 781 763 754 759 767 767 769 786 800 793 773 746 756 734 707 705 705 702 695 690 688 684 686 682 677 676 676 679 682 689 696 701 707 713 720 726 729 735 739 744 753 760 766
780 773 755 755 752 759 765 770 756 771 764 771 754 742 725 702 700 701 699 699 690 683 682 683 678 673 669 668 670 668 676 685 690 695 704 713 718 724 730 734 738 745 754 762
772 771 753 755 753 753 761 757 776 769 775 775 750 761 749 710 711 706 700 695 692 688 680 675 670 664 658 658 657 660 666 671 677 688 695 706 713 718 723 728 733 736 744 756
775 781 771 766 765 767 765 763 758 759 767 777 766 743 716 708 710 706 698 690 683 686 678 671 662 652 648 648 655 653 662 669 676 684 691 698 706 711 718 722 727 734 740 746
779 781 783 771 762 756 761 761 764 777 776 769 763 748 714 713 710 709 705 697 690 683 673 668 658 647 642 642 648 649 656 662 670 679 685 693 700 707 713 719 725 731 736 740
786 790 796 770 766 761 766 762 765 774 785 777 769 745 708 725 720 714 706 696 685 678 668 663 658 651 641 639 643 649 653 659 668 675 681 688 694 702 707 715 722 728 731 739
783 781 783 782 775 772 774 766 763 766 784 769 761 749 734 703 716 710 701 695 686 678 668 659 654 651 648 642 642 645 649 657 662 668 675 682 688 694 700 707 714 722 728 733
783 787 778 769 771 772 770 767 763 765 759 762 744 746 728 708 698 700 696 690 682 673 662 653 650 648 646 648 648 646 649 653 658 665 672 676 683 691 698 705 711 717 728 731
782 786 780 771 767 765 763 754 753 753 747 749 743 733 720 707 692 694 688 682 677 671 662 648 647 646 646 650 646 646 648 650 654 661 668 677 682 687 694 704 711 718 726 737
786 787 789 774 767 764 766 743 743 737 735 735 731 720 707 706 695 692 686 681 674 666 657 650 642 641 641 640 640 641 644 650 655 660 664 670 678 684 690 699 709 719 726 732
777 781 783 773 774 772 734 729 729 729 722 722 718 708 701 699 690 684 683 678 672 667 659 647 641 638 641 639 636 637 639 643 648 655 660 666 674 683 689 698 705 715 724 731
759 767 774 772 766 745 734 720 723 723 715 711 710 703 695 692 686 683 682 676 671 666 660 653 644 635 632 627 625 632 635 639 644 648 653 659 669 678 687 694 702 710 719 731
749 755 765 786 761 761 719 702 710 717 727 703 702 698 697 694 693 681 677 671 667 661 653 648 639 631 623 617 620 626 629 628 633 641 645 652 663 672 680 689 699 710 716 727
758 770 755 751 750 729 705 700 710 728 710 684 690 691 691 690 685 672 672 669 665 661 648 635 627 620 611 608 611 616 621 623 627 637 645 653 659 670 677 687 698 708 715 724
748 759 759 754 743 733 695 703 713 688 683 686 686 684 683 679 675 668 662 658 656 650 640 632 628 618 606 598 600 605 608 611 621 630 642 649 657 666 673 680 697 705 715 723
735 719 716 725 720 693 688 685 683 684 685 682 682 676 674 670 667 661 656 651 648 643 636 626 621 616 600 588 585 592 598 609 619 628 635 642 651 663 672 675 690 698 713 720
714 706 715 709 688 682 683 681 677 676 674 670 668 665 663 659 655 653 649 647 644 637 632 628 616 623 616 592 585 589 599 608 614 624 634 645 651 660 670 676 688 695 705 718
705 703 698 696 678 677 677 674 669 665 664 663 659 656 653 651 647 646 641 636 633 630 629 626 625 634 625 610 590 594 601 612 624 634 641 647 656 662 671 680 687 695 708 716
682 688 699 682 672 678 667 663 659 657 653 651 652 648 643 642 638 637 633 630 627 624 625 622 621 628 624 623 606 607 608 609 619 637 649 649 653 663 674 680 692 705 713 721